Regional Weather Roundup
Issued by NWS

Home | Current Version | Previous Version | Graphics & Text | Print | Product List | Glossary On
Versions: 1 2 3 4 5 6 7 8 9 10 11 12 13 14 15 16 17 18 19 20 21 22 23 24 25 26 27 28 29 30 31 32 33 34 35 36 37 38 39 40 41 42 43 44 45 46 47 48 49 50
000
ASUS45 KPSR 020000
RWRAZ

PRELIMINARY ARIZONA REGIONAL HOURLY WEATHER ROUNDUP
NATIONAL WEATHER SERVICE PHOENIX AZ
500 PM MST MON SEP 01 2014

NOTE: FAIR INDICATES FEW OR NO CLOUDS BELOW 12,000 FEET WITH NO
SIGNIFICANT WEATHER AND/OR OBSTRUCTIONS TO VISIBILITY.

AZZ001>003-036-020100-
NORTHWEST ARIZONA

CITY           SKY/WX    TMP DP  RH WIND       PRES   REMARKS
KINGMAN        SUNNY     95  36  12 SW17G24   29.91S
6HR MIN TEMP:  92; 6HR MAX TEMP:  98;

$$

AZZ004>008-015-016-018-020100-
NORTH CENTRAL ARIZONA

CITY           SKY/WX    TMP DP  RH WIND       PRES   REMARKS
GRAND CANYON   SUNNY     82  37  20 S13G18    30.16S
WILLIAMS       SUNNY     79  41  25 SW6       30.25S
PRESCOTT       SUNNY     86  41  20 S5        30.06S
6HR MIN TEMP:  82; 6HR MAX TEMP:  87;

FLAGSTAFF      SUNNY     79  35  20 W9        30.22R
6HR MIN TEMP:  74; 6HR MAX TEMP:  80;

PAYSON         SUNNY     86  36  16 VRB5G12   30.09F
PAGE           SUNNY     96  34  11 W9G20     29.92F
6HR MIN TEMP:  87; 6HR MAX TEMP:  98;

$$

AZZ009>014-017-020100-
NORTHEAST ARIZONA

CITY           SKY/WX    TMP DP  RH WIND       PRES   REMARKS
WINSLOW        NOT AVBL
SAINT JOHNS    SUNNY     88  29  12 W10       30.08S
6HR MIN TEMP:  81; 6HR MAX TEMP:  90;

WINDOW ROCK    SUNNY     85  33  15 VRB5G18   30.15F
6HR MIN TEMP:  81; 6HR MAX TEMP:  88;

$$

AZZ023-020100-
GREATER PHOENIX AREA

CITY           SKY/WX    TMP DP  RH WIND       PRES   REMARKS
PHOENIX        MOSUNNY  106  39  10 VRB3      29.72S HX 100
6HR MIN TEMP:  96; 6HR MAX TEMP: 108;

GLENDALE       SUNNY    106  39  10 S3        29.74F HX 100
DEER VALLEY    SUNNY    103  35   9 N3        29.75F
6HR MIN TEMP:  95; 6HR MAX TEMP: 104;

SCOTTSDALE     SUNNY    103  40  11 CALM      29.77F
6HR MIN TEMP:  95; 6HR MAX TEMP: 104;

MESA-FALCON    SUNNY    108  39   9 S7        29.75  HX 101
MESA-GATEWAY   SUNNY    104  39  11 NW8       29.77F
CHANDLER       SUNNY    106  41  11 W7        29.74F HX 100
$$

AZZ027-028-020100-
SOUTHWEST MARICOPA COUNTY AND PINAL COUNTY

CITY           SKY/WX    TMP DP  RH WIND       PRES   REMARKS
CASA GRANDE    SUNNY    106  39  10 SW7       29.76S HX 100
6HR MIN TEMP:  97; 6HR MAX TEMP: 108;

$$

AZZ503-504-507>509-020100-
SOUTHEAST ARIZONA

CITY           SKY/WX    TMP DP  RH WIND       PRES   REMARKS
TUCSON         SUNNY    101  44  14 VRB5      29.87F
6HR MIN TEMP:  94; 6HR MAX TEMP: 103;

NOGALES        SUNNY     93  46  19 W7        29.97F
6HR MIN TEMP:  88; 6HR MAX TEMP:  95;

SIERRA VISTA   SUNNY     92  41  17 NW12      30.03F
6HR MIN TEMP:  85; 6HR MAX TEMP:  94;

SAFFORD        SUNNY     98  34  10 NW17G24   29.87F
6HR MIN TEMP:  91; 6HR MAX TEMP: 100;

$$

AZZ020-021-025-026-031-020100-
SOUTHWEST ARIZONA

CITY           SKY/WX    TMP DP  RH WIND       PRES   REMARKS
YUMA           SUNNY    109  39   9 SW8       29.64F HX 103
6HR MIN TEMP: 100; 6HR MAX TEMP: 110;

$$

CAZ031-033-041-043-047-048-061-020100-
SOUTHERN CALIFORNIA

CITY           SKY/WX    TMP DP  RH WIND       PRES   REMARKS
DOWNTOWN L.A.  SUNNY     83  64  52 VRB5      29.76F
6HR MIN TEMP:  81; 6HR MAX TEMP:  85;

L.A. AIRPORT   MOSUNNY   76  66  71 W12       29.78F
6HR MIN TEMP:  75; 6HR MAX TEMP:  79;

SAN DIEGO      MOSUNNY   74  62  66 S8        29.81S
6HR MIN TEMP:  73; 6HR MAX TEMP:  75;

BURBANK        SUNNY     87  55  33 S9        29.77F
6HR MIN TEMP:  81; 6HR MAX TEMP:  89;

ONTARIO        MOSUNNY   92  57  30 W14G21    29.77S
6HR MIN TEMP:  84; 6HR MAX TEMP:  96;

RIVERSIDE      SUNNY     91  59  33 W13G20    29.76S
6HR MIN TEMP:  85; 6HR MAX TEMP:  96;

PALM SPRINGS   SUNNY    106  36   9 E6        29.67F
6HR MIN TEMP:  96; 6HR MAX TEMP: 106;

IMPERIAL       SUNNY    108  44  11 E7        29.61F HX 103
6HR MIN TEMP:  96; 6HR MAX TEMP: 108;

BLYTHE         SUNNY    107  43  11 SE7       29.65F HX 102
6HR MIN TEMP:  98; 6HR MAX TEMP: 108;

$$

NVZ020-UTZ003-020100-
SOUTHERN NEVADA-UTAH

CITY           SKY/WX    TMP DP  RH WIND       PRES   REMARKS
LAS VEGAS      NOT AVBL
SALT LAKE CITY SUNNY     78  33  19 N9        30.05F
6HR MIN TEMP:  73; 6HR MAX TEMP:  80;

$$

NMZ009-TXZ055-020100-
NEW MEXICO-WEST TEXAS

CITY           SKY/WX    TMP DP  RH WIND       PRES   REMARKS
ALBUQUERQUE    MOSUNNY   90  35  14 VRB3      30.02F
6HR MIN TEMP:  83; 6HR MAX TEMP:  93;

EL PASO        MOSUNNY   98  34  10 W16       29.92S
6HR MIN TEMP:  92; 6HR MAX TEMP:  99;

$$


........................KEY........................
SKY/WX - SKY CONDITION/WEATHER
TMP    - TEMPERATURE IN FAHRENHEIT
DP     - DEW POINT IN FAHRENHEIT
RH     - RELATIVE HUMIDITY IN PERCENT
WIND   - DIRECTION AND SPEED IN MILES PER HOUR (MPH)
VRB    - VARIABLE WIND DIRECTION
PRES   - MEAN SEA LEVEL PRESSURE IN INCHES OF MERCURY
         F - FALLING PRESSURE   R - RISING PRESSURE
         S - STEADY PRESSURE
VSB    - VISIBILITY IN MILES
HX     - HEAT INDEX IN FAHRENHEIT
WCI    - WIND CHILL INDEX IN FAHRENHEIT
TC     - TEMPERATURE IN CELSIUS WHICH IS ALSO KNOWN AS
         TEMPERATURE IN CENTIGRADE
AFB    - AIR FORCE BASE
         LUKE AFB IS LUKE AIR FORCE BASE
         DAVIS-MONTHAN IS DAVIS-MONTHAN AIR FORCE BASE
NAS    - NAVAL AIR STATION
         EL CENTRO NAS IS EL CENTRO NAVAL AIR STATION
N/A    - NOT AVAILABLE



USA.gov is the U.S. government's official web portal to all federal, state and local government web resources and services.